When you browse on this site, cookies collect data to enhance your experience and personalize the content and advertising you see.
Visit our Privacy Policy to learn more. By continuing to use the site, you agree to this use of cookies and data.
EN

Hourly Weather Amitovo

Today, 20 September, Sunday

Time Temperature Precipitation Wind Pressure Humidity
00:00 +9°C° 0.1 mm 2 mps 734 mmHg 86%
01:00 +10°C° 0.1 mm 1 mps 733 mmHg 85%
02:00 +9°C° 0.3 mm 2 mps 732 mmHg 86%
03:00 +9°C° 0.3 mm 3 mps 732 mmHg 86%
04:00 +8°C° 0.3 mm 4 mps 731 mmHg 87%
05:00 +8°C° 0.8 mm 3 mps 731 mmHg 89%
06:00 +8°C° 0.8 mm 3 mps 730 mmHg 90%
07:00 +8°C° 0.8 mm 3 mps 729 mmHg 92%
08:00 +8°C° 2.2 mm 3 mps 729 mmHg 93%
09:00 +8°C° 2.2 mm 3 mps 729 mmHg 94%
10:00 +7°C° 2.2 mm 4 mps 730 mmHg 95%
11:00 +5°C° 0.9 mm 6 mps 730 mmHg 95%
12:00 +4°C° 0.9 mm 7 mps 730 mmHg 95%
13:00 +2°C° 0.9 mm 9 mps 731 mmHg 95%
14:00 +2°C° 0.3 mm 8 mps 732 mmHg 91%
15:00 +3°C° 0.3 mm 7 mps 733 mmHg 88%
16:00 +4°C° 0.3 mm 7 mps 734 mmHg 85%
17:00 +3°C° 0 mm 6 mps 735 mmHg 85%
18:00 +4°C° 0 mm 4 mps 735 mmHg 85%
19:00 +4°C° 0 mm 3 mps 736 mmHg 85%
20:00 +4°C° 0 mm 3 mps 736 mmHg 85%
21:00 +4°C° 0 mm 3 mps 737 mmHg 85%
22:00 +5°C° 0 mm 3 mps 737 mmHg 85%
23:00 +4°C° 0.1 mm 3 mps 737 mmHg 87%

Tomorrow, 21 September, Monday

Time Temperature Precipitation Wind Pressure Humidity
00:00 +4°C° 0.1 mm 4 mps 737 mmHg 90%
01:00 +4°C° 0.1 mm 4 mps 738 mmHg 92%
02:00 +4°C° 0 mm 4 mps 738 mmHg 91%
03:00 +3°C° 0 mm 5 mps 739 mmHg 90%
04:00 +3°C° 0 mm 5 mps 739 mmHg 90%
05:00 +3°C° 0 mm 5 mps 739 mmHg 89%
06:00 +4°C° 0 mm 4 mps 740 mmHg 89%
07:00 +4°C° 0 mm 4 mps 740 mmHg 88%
08:00 +4°C° 0.1 mm 4 mps 740 mmHg 86%
09:00 +5°C° 0.1 mm 5 mps 741 mmHg 84%
10:00 +5°C° 0.1 mm 5 mps 741 mmHg 82%
11:00 +5°C° 0.2 mm 5 mps 741 mmHg 82%
12:00 +6°C° 0.2 mm 5 mps 742 mmHg 82%
13:00 +5°C° 0.2 mm 6 mps 742 mmHg 82%
14:00 +5°C° 0.2 mm 6 mps 742 mmHg 80%
15:00 +5°C° 0.2 mm 6 mps 742 mmHg 78%
16:00 +5°C° 0.2 mm 6 mps 743 mmHg 76%
17:00 +5°C° 0 mm 5 mps 743 mmHg 77%
18:00 +5°C° 0 mm 4 mps 743 mmHg 79%
19:00 +4°C° 0 mm 3 mps 744 mmHg 81%
20:00 +4°C° 0 mm 3 mps 743 mmHg 84%
21:00 +4°C° 0 mm 3 mps 743 mmHg 87%
22:00 +5°C° 0 mm 4 mps 743 mmHg 90%
23:00 +5°C° 0.5 mm 4 mps 743 mmHg 91%

Day after tomorrow, 22 September, Tuesday

Time Temperature Precipitation Wind Pressure Humidity
00:00 +5°C° 0.5 mm 4 mps 742 mmHg 92%
01:00 +5°C° 0.5 mm 5 mps 742 mmHg 94%
02:00 +5°C° 0.6 mm 5 mps 742 mmHg 94%
03:00 +6°C° 0.6 mm 5 mps 742 mmHg 93%
04:00 +6°C° 0.6 mm 5 mps 742 mmHg 93%
05:00 +6°C° 0.1 mm 5 mps 742 mmHg 93%
06:00 +6°C° 0.1 mm 5 mps 743 mmHg 92%
07:00 +5°C° 0.1 mm 5 mps 743 mmHg 91%
08:00 +6°C° 0 mm 5 mps 744 mmHg 88%
09:00 +6°C° 0 mm 5 mps 744 mmHg 85%
10:00 +7°C° 0 mm 5 mps 745 mmHg 81%
11:00 +7°C° 0 mm 5 mps 745 mmHg 78%
12:00 +8°C° 0 mm 5 mps 745 mmHg 75%
13:00 +9°C° 0 mm 5 mps 746 mmHg 72%
14:00 +9°C° 0 mm 5 mps 746 mmHg 72%
15:00 +10°C° 0 mm 5 mps 745 mmHg 72%
16:00 +10°C° 0 mm 5 mps 745 mmHg 71%
17:00 +10°C° 0 mm 5 mps 745 mmHg 73%
18:00 +9°C° 0 mm 5 mps 745 mmHg 75%
19:00 +9°C° 0 mm 5 mps 745 mmHg 77%
20:00 +9°C° 0 mm 5 mps 744 mmHg 78%
21:00 +9°C° 0 mm 6 mps 743 mmHg 80%
22:00 +10°C° 0 mm 6 mps 743 mmHg 81%
23:00 +10°C° 0 mm 7 mps 742 mmHg 81%

23 September, Wednesday

Time Temperature Precipitation Wind Pressure Humidity
00:00 +10°C° 0 mm 7 mps 741 mmHg 81%
01:00 +11°C° 0 mm 7 mps 740 mmHg 81%
02:00 +11°C° 0.1 mm 7 mps 740 mmHg 82%
03:00 +11°C° 0.1 mm 7 mps 739 mmHg 82%
04:00 +11°C° 0.1 mm 8 mps 739 mmHg 83%
05:00 +11°C° 0.1 mm 7 mps 739 mmHg 84%
06:00 +11°C° 0.1 mm 7 mps 739 mmHg 84%
07:00 +11°C° 0.1 mm 7 mps 739 mmHg 85%
08:00 +11°C° 0.3 mm 7 mps 739 mmHg 81%
09:00 +11°C° 0.3 mm 8 mps 740 mmHg 77%
10:00 +12°C° 0.3 mm 8 mps 740 mmHg 73%
11:00 +12°C° 0.1 mm 8 mps 740 mmHg 67%
12:00 +12°C° 0.1 mm 9 mps 741 mmHg 61%
13:00 +12°C° 0.1 mm 9 mps 742 mmHg 55%
14:00 +12°C° 0 mm 8 mps 742 mmHg 56%
15:00 +11°C° 0 mm 8 mps 743 mmHg 57%
16:00 +11°C° 0 mm 7 mps 744 mmHg 58%
17:00 +10°C° 0 mm 6 mps 744 mmHg 62%
18:00 +9°C° 0 mm 5 mps 745 mmHg 67%
19:00 +8°C° 0 mm 4 mps 746 mmHg 71%
20:00 +7°C° 0 mm 4 mps 747 mmHg 70%
21:00 +8°C° 0 mm 3 mps 747 mmHg 70%
22:00 +8°C° 0 mm 3 mps 748 mmHg 70%
23:00 +7°C° 0 mm 3 mps 748 mmHg 73%

24 September, Thursday

Time Temperature Precipitation Wind Pressure Humidity
00:00 +5°C° 0 mm 3 mps 749 mmHg 77%
01:00 +4°C° 0 mm 3 mps 749 mmHg 80%
02:00 +5°C° 0 mm 2 mps 750 mmHg 82%
03:00 +4°C° 0 mm 2 mps 751 mmHg 83%
04:00 +4°C° 0 mm 2 mps 751 mmHg 85%
05:00 +4°C° 0 mm 2 mps 752 mmHg 86%
06:00 +5°C° 0 mm 1 mps 752 mmHg 86%
07:00 +5°C° 0 mm 1 mps 753 mmHg 87%
08:00 +6°C° 0 mm 2 mps 753 mmHg 82%
09:00 +7°C° 0 mm 2 mps 753 mmHg 76%
10:00 +9°C° 0 mm 2 mps 754 mmHg 71%
11:00 +10°C° 0 mm 2 mps 754 mmHg 67%
12:00 +11°C° 0 mm 3 mps 754 mmHg 64%
13:00 +12°C° 0 mm 3 mps 754 mmHg 61%
14:00 +12°C° 0 mm 3 mps 755 mmHg 62%
15:00 +12°C° 0 mm 3 mps 755 mmHg 62%
16:00 +12°C° 0 mm 3 mps 755 mmHg 63%
17:00 +10°C° 0 mm 2 mps 755 mmHg 68%
18:00 +10°C° 0 mm 1 mps 756 mmHg 73%
19:00 +9°C° 0 mm 1 mps 756 mmHg 78%
20:00 +7°C° 0 mm 0 mps 756 mmHg 79%
21:00 +7°C° 0 mm 0 mps 756 mmHg 81%
22:00 +6°C° 0 mm 0 mps 757 mmHg 82%
23:00 +6°C° 0 mm 0 mps 757 mmHg 83%

25 September, Friday

Time Temperature Precipitation Wind Pressure Humidity
00:00 +6°C° 0 mm 0 mps 757 mmHg 84%
01:00 +5°C° 0 mm 0 mps 757 mmHg 85%
02:00 +5°C° 0 mm 0 mps 758 mmHg 86%
03:00 +5°C° 0 mm 0 mps 758 mmHg 86%
04:00 +5°C° 0 mm 0 mps 758 mmHg 87%
05:00 +5°C° 0 mm 0 mps 758 mmHg 87%
06:00 +5°C° 0 mm 0 mps 759 mmHg 87%
07:00 +5°C° 0 mm 0 mps 759 mmHg 87%
08:00 +8°C° 0 mm 1 mps 759 mmHg 81%
09:00 +9°C° 0 mm 1 mps 759 mmHg 75%
10:00 +11°C° 0 mm 1 mps 759 mmHg 68%
11:00 +12°C° 0 mm 1 mps 759 mmHg 64%
12:00 +13°C° 0 mm 1 mps 759 mmHg 59%
13:00 +15°C° 0 mm 1 mps 759 mmHg 54%
14:00 +15°C° 0 mm 1 mps 759 mmHg 54%
15:00 +15°C° 0 mm 1 mps 759 mmHg 54%
16:00 +15°C° 0 mm 1 mps 759 mmHg 54%
17:00 +13°C° 0 mm 1 mps 759 mmHg 60%
18:00 +12°C° 0 mm 1 mps 759 mmHg 66%
19:00 +10°C° 0 mm 1 mps 759 mmHg 72%
20:00 +10°C° 0 mm 1 mps 759 mmHg 74%
21:00 +9°C° 0 mm 1 mps 759 mmHg 77%
22:00 +9°C° 0 mm 1 mps 759 mmHg 79%
23:00 +8°C° 0 mm 1 mps 760 mmHg 81%
Show more